"Period start","avg(HW err(1)/warn(2) (#))","avg(Visibility (m))","avg(Weather code (#))","avg(Precip intensity (mm/h))","min(HW err(1)/warn(2) (#))","max(HW err(1)/warn(2) (#))","std(HW err(1)/warn(2) (#))","med(HW err(1)/warn(2) (#))","min(Visibility (m))","max(Visibility (m))","std(Visibility (m))","med(Visibility (m))","min(Weather code (#))","max(Weather code (#))","std(Weather code (#))","med(Weather code (#))","min(Precip intensity (mm/h))","max(Precip intensity (mm/h))","std(Precip intensity (mm/h))","med(Precip intensity (mm/h))"
2017-04-04 00:00:00,2,45204,0,0.00,2,2,0,2,40641,50000,3471,44319,0,0,0,0,0.00,0.00,0.00,0.00
2017-04-04 00:10:00,2,41595,0,0.00,2,2,0,2,28300,50000,8140,42780,0,0,0,0,0.00,0.00,0.00,0.00
2017-04-04 00:20:00,2,33474,0,0.00,2,2,0,2,14175,50000,12022,34302,0,0,0,0,0.00,0.00,0.00,0.00
2017-04-04 00:30:00,2,40276,0,0.00,2,2,0,2,22586,50000,9899,43882,0,0,0,0,0.00,0.00,0.00,0.00
2017-04-04 00:40:00,2,39799,0,0.00,2,2,0,2,29626,50000,6231,39602,0,0,0,0,0.00,0.00,0.00,0.00
2017-04-04 00:50:00,2,38691,0,0.00,2,2,0,2,30051,50000,7166,37916,0,0,0,0,0.00,0.00,0.00,0.00
2017-04-04 01:00:00,2,41528,0,0.00,2,2,0,2,28832,50000,8022,46290,0,0,0,0,0.00,0.00,0.00,0.00
2017-04-04 01:10:00,2,40874,0,0.00,2,2,0,2,31492,50000,5648,41014,0,0,0,0,0.00,0.00,0.00,0.00
2017-04-04 01:20:00,2,36144,0,0.00,2,2,0,2,26814,48319,6625,35968,0,0,0,0,0.00,0.00,0.00,0.00
2017-04-04 01:30:00,2,33396,0,0.00,2,2,0,2,19363,45232,7872,33114,0,0,0,0,0.00,0.00,0.00,0.00
2017-04-04 01:40:00,2,45007,0,0.00,2,2,0,2,32063,50000,6536,49025,0,0,0,0,0.00,0.00,0.00,0.00
2017-04-04 01:50:00,2,36382,0,0.00,2,2,0,2,21341,50000,9781,34828,0,0,0,0,0.00,0.00,0.00,0.00
2017-04-04 02:00:00,2,37632,0,0.00,2,2,0,2,21382,49641,9420,38474,0,0,0,0,0.00,0.00,0.00,0.00
2017-04-04 02:10:00,2,31773,0,0.00,2,2,0,2,23871,44261,6380,31048,0,0,0,0,0.00,0.00,0.00,0.00
2017-04-04 02:20:00,2,34747,0,0.00,2,2,0,2,24319,49349,8409,33432,0,0,0,0,0.00,0.00,0.00,0.00
2017-04-04 02:30:00,2,37747,0,0.00,2,2,0,2,28398,48241,7043,34529,0,0,0,0,0.00,0.00,0.00,0.00
2017-04-04 02:40:00,2,38375,0,0.00,2,2,0,2,27933,50000,7945,37834,0,0,0,0,0.00,0.00,0.00,0.00
2017-04-04 02:50:00,2,36089,0,0.00,2,2,0,2,24959,48278,7136,37004,0,0,0,0,0.00,0.00,0.00,0.00
2017-04-04 03:00:00,2,41868,0,0.00,2,2,0,2,30834,50000,7128,43552,0,0,0,0,0.00,0.00,0.00,0.00
2017-04-04 03:10:00,2,37579,0,0.00,2,2,0,2,18198,50000,9795,36876,0,0,0,0,0.00,0.00,0.00,0.00
2017-04-04 03:20:00,2,41442,0,0.00,2,2,0,2,19176,50000,9929,44519,0,0,0,0,0.00,0.00,0.00,0.00
2017-04-04 03:30:00,2,43639,0,0.00,2,2,0,2,33128,50000,6066,43396,0,0,0,0,0.00,0.00,0.00,0.00
2017-04-04 03:40:00,2,40704,0,0.00,2,2,0,2,29852,50000,6868,41038,0,0,0,0,0.00,0.00,0.00,0.00
2017-04-04 03:50:00,2,38582,0,0.00,2,2,0,2,26350,50000,6692,36556,0,0,0,0,0.00,0.00,0.00,0.00
2017-04-04 04:00:00,2,43191,0,0.00,2,2,0,2,29287,50000,7751,46320,0,0,0,0,0.00,0.00,0.00,0.00
2017-04-04 04:10:00,2,41259,0,0.00,2,2,0,2,24385,50000,10164,47476,0,0,0,0,0.00,0.00,0.00,0.00
2017-04-04 04:20:00,2,43163,0,0.00,2,2,0,2,33018,50000,5072,44616,0,0,0,0,0.00,0.00,0.00,0.00
2017-04-04 04:30:00,2,36150,0,0.00,2,2,0,2,27941,50000,6897,34818,0,0,0,0,0.00,0.00,0.00,0.00
2017-04-04 04:40:00,2,43199,0,0.00,2,2,0,2,35846,50000,4903,42609,0,0,0,0,0.00,0.00,0.00,0.00
2017-04-04 04:50:00,2,43888,0,0.00,2,2,0,2,29333,50000,6278,43734,0,0,0,0,0.00,0.00,0.00,0.00
2017-04-04 05:00:00,2,42296,0,0.00,2,2,0,2,34661,50000,5630,41434,0,0,0,0,0.00,0.00,0.00,0.00
2017-04-04 05:10:00,2,37673,0,0.00,2,2,0,2,23552,48000,7641,38152,0,0,0,0,0.00,0.00,0.00,0.00
2017-04-04 05:20:00,2,46791,0,0.00,2,2,0,2,32558,50000,5220,48941,0,0,0,0,0.00,0.00,0.00,0.00
2017-04-04 05:30:00,2,45839,0,0.00,2,2,0,2,38254,50000,4099,46279,0,0,0,0,0.00,0.00,0.00,0.00
2017-04-04 05:40:00,2,44514,0,0.00,2,2,0,2,35132,50000,5058,45200,0,0,0,0,0.00,0.00,0.00,0.00
2017-04-04 05:50:00,2,47488,0,0.00,2,2,0,2,37496,50000,3916,49146,0,0,0,0,0.00,0.00,0.00,0.00
2017-04-04 06:00:00,2,41093,0,0.00,2,2,0,2,33974,50000,5277,40285,0,0,0,0,0.00,0.00,0.00,0.00
2017-04-04 06:10:00,2,44698,0,0.00,2,2,0,2,35805,50000,5020,46494,0,0,0,0,0.00,0.00,0.00,0.00
2017-04-04 06:20:00,2,44190,0,0.00,2,2,0,2,36888,50000,4573,44053,0,0,0,0,0.00,0.00,0.00,0.00
2017-04-04 06:30:00,2,45043,0,0.00,2,2,0,2,27882,50000,6103,46106,0,0,0,0,0.00,0.00,0.00,0.00
2017-04-04 06:40:00,2,43021,0,0.00,2,2,0,2,30766,50000,6028,43120,0,0,0,0,0.00,0.00,0.00,0.00
2017-04-04 06:50:00,2,45812,0,0.00,2,2,0,2,36816,50000,4048,45175,0,0,0,0,0.00,0.00,0.00,0.00
2017-04-04 07:00:00,2,43520,0,0.00,2,2,0,2,35290,50000,5054,43600,0,0,0,0,0.00,0.00,0.00,0.00
2017-04-04 07:10:00,2,47610,0,0.00,2,2,0,2,42577,50000,2846,49458,0,0,0,0,0.00,0.00,0.00,0.00
2017-04-04 07:20:00,2,47892,0,0.00,2,2,0,2,40930,50000,2655,48415,0,0,0,0,0.00,0.00,0.00,0.00
2017-04-04 07:30:00,2,44094,0,0.00,2,2,0,2,32377,50000,6602,46070,0,0,0,0,0.00,0.00,0.00,0.00
2017-04-04 07:40:00,2,48220,0,0.00,2,2,0,2,44575,50000,2149,49604,0,0,0,0,0.00,0.00,0.00,0.00
2017-04-04 07:50:00,2,43632,0,0.00,2,2,0,2,36021,50000,4915,43944,0,0,0,0,0.00,0.00,0.00,0.00
2017-04-04 08:00:00,2,40809,0,0.00,2,2,0,2,30510,50000,5591,40350,0,0,0,0,0.00,0.00,0.00,0.00
2017-04-04 08:10:00,2,47368,0,0.00,2,2,0,2,40033,50000,3931,49922,0,0,0,0,0.00,0.00,0.00,0.00
2017-04-04 08:20:00,2,50000,0,0.00,2,2,0,2,50000,50000,0,50000,0,0,0,0,0.00,0.00,0.00,0.00
2017-04-04 08:30:00,2,49802,0,0.00,2,2,0,2,49007,50000,338,50000,0,0,0,0,0.00,0.00,0.00,0.00
2017-04-04 08:40:00,2,49901,0,0.00,2,2,0,2,49010,50000,297,50000,0,0,0,0,0.00,0.00,0.00,0.00
2017-04-04 08:50:00,2,49921,0,0.00,2,2,0,2,49214,50000,236,50000,0,0,0,0,0.00,0.00,0.00,0.00
2017-04-04 09:00:00,2,50000,0,0.00,2,2,0,2,50000,50000,0,50000,0,0,0,0,0.00,0.00,0.00,0.00
2017-04-04 09:10:00,2,48976,0,0.00,2,2,0,2,45347,50000,1602,50000,0,0,0,0,0.00,0.00,0.00,0.00
2017-04-04 09:20:00,2,49782,0,0.00,2,2,0,2,48692,50000,447,50000,0,0,0,0,0.00,0.00,0.00,0.00
2017-04-04 09:30:00,2,49166,0,0.00,2,2,0,2,44579,50000,1634,50000,0,0,0,0,0.00,0.00,0.00,0.00
2017-04-04 09:40:00,2,48690,0,0.00,2,2,0,2,41320,50000,2739,50000,0,0,0,0,0.00,0.00,0.00,0.00
2017-04-04 09:50:00,2,49865,0,0.00,2,2,0,2,48646,50000,406,50000,0,0,0,0,0.00,0.00,0.00,0.00
2017-04-04 10:00:00,2,50000,0,0.00,2,2,0,2,50000,50000,0,50000,0,0,0,0,0.00,0.00,0.00,0.00
2017-04-04 10:10:00,2,50000,0,0.00,2,2,0,2,50000,50000,0,50000,0,0,0,0,0.00,0.00,0.00,0.00
2017-04-04 10:20:00,2,50000,0,0.00,2,2,0,2,50000,50000,0,50000,0,0,0,0,0.00,0.00,0.00,0.00
2017-04-04 10:30:00,2,50000,0,0.00,2,2,0,2,50000,50000,0,50000,0,0,0,0,0.00,0.00,0.00,0.00
2017-04-04 10:40:00,2,50000,0,0.00,2,2,0,2,50000,50000,0,50000,0,0,0,0,0.00,0.00,0.00,0.00
2017-04-04 10:50:00,2,50000,0,0.00,2,2,0,2,50000,50000,0,50000,0,0,0,0,0.00,0.00,0.00,0.00
2017-04-04 11:00:00,2,49536,0,0.00,2,2,0,2,45388,50000,1383,50000,0,0,0,0,0.00,0.00,0.00,0.00
2017-04-04 11:10:00,2,48754,0,0.00,2,2,0,2,46623,50000,1341,49274,0,0,0,0,0.00,0.00,0.00,0.00
2017-04-04 11:20:00,2,46718,0,0.00,2,2,0,2,40044,50000,3968,48602,0,0,0,0,0.00,0.00,0.00,0.00
2017-04-04 11:30:00,2,47347,0,0.00,2,2,0,2,42991,50000,2646,48380,0,0,0,0,0.00,0.00,0.00,0.00
2017-04-04 11:40:00,2,49573,0,0.00,2,2,0,2,47828,50000,733,50000,0,0,0,0,0.00,0.00,0.00,0.00
2017-04-04 11:50:00,2,48565,0,0.00,2,2,0,2,42947,50000,2275,50000,0,0,0,0,0.00,0.00,0.00,0.00
2017-04-04 12:00:00,2,47574,0,0.00,2,2,0,2,43370,50000,2700,48721,0,0,0,0,0.00,0.00,0.00,0.00
2017-04-04 12:10:00,2,49763,0,0.00,2,2,0,2,47632,50000,710,50000,0,0,0,0,0.00,0.00,0.00,0.00
2017-04-04 12:20:00,2,49802,0,0.00,2,2,0,2,48021,50000,594,50000,0,0,0,0,0.00,0.00,0.00,0.00
2017-04-04 12:30:00,2,48779,0,0.00,2,2,0,2,41757,50000,2468,50000,0,0,0,0,0.00,0.00,0.00,0.00
2017-04-04 12:40:00,2,49578,0,0.00,2,2,0,2,47792,50000,846,50000,0,0,0,0,0.00,0.00,0.00,0.00
2017-04-04 12:50:00,2,49489,0,0.00,2,2,0,2,46216,50000,1161,50000,0,0,0,0,0.00,0.00,0.00,0.00
2017-04-04 13:00:00,2,49951,0,0.00,2,2,0,2,49713,50000,100,50000,0,0,0,0,0.00,0.00,0.00,0.00
2017-04-04 13:10:00,2,49903,0,0.00,2,2,0,2,49026,50000,292,50000,0,0,0,0,0.00,0.00,0.00,0.00
2017-04-04 13:20:00,2,49983,0,0.00,2,2,0,2,49833,50000,50,50000,0,0,0,0,0.00,0.00,0.00,0.00
2017-04-04 13:30:00,2,49667,0,0.00,2,2,0,2,46672,50000,998,50000,0,0,0,0,0.00,0.00,0.00,0.00
2017-04-04 13:40:00,2,49729,0,0.00,2,2,0,2,47292,50000,812,50000,0,0,0,0,0.00,0.00,0.00,0.00
2017-04-04 13:50:00,2,49607,0,0.00,2,2,0,2,47800,50000,703,49987,0,0,0,0,0.00,0.00,0.00,0.00
2017-04-04 14:00:00,2,49935,0,0.00,2,2,0,2,49391,50000,182,50000,0,0,0,0,0.00,0.00,0.00,0.00
2017-04-04 14:10:00,2,50000,0,0.00,2,2,0,2,50000,50000,0,50000,0,0,0,0,0.00,0.00,0.00,0.00
2017-04-04 14:20:00,2,49535,0,0.00,2,2,0,2,48150,50000,707,50000,0,0,0,0,0.00,0.00,0.00,0.00
2017-04-04 14:30:00,2,49742,0,0.00,2,2,0,2,48630,50000,517,50000,0,0,0,0,0.00,0.00,0.00,0.00
2017-04-04 14:40:00,2,49605,0,0.00,2,2,0,2,46694,50000,989,50000,0,0,0,0,0.00,0.00,0.00,0.00
2017-04-04 14:50:00,2,49823,0,0.00,2,2,0,2,48953,50000,323,50000,0,0,0,0,0.00,0.00,0.00,0.00
2017-04-04 15:00:00,2,48813,0,0.00,2,2,0,2,45714,50000,1704,50000,0,0,0,0,0.00,0.00,0.00,0.00
2017-04-04 15:10:00,2,49971,0,0.00,2,2,0,2,49707,50000,88,50000,0,0,0,0,0.00,0.00,0.00,0.00
2017-04-04 15:20:00,2,49659,0,0.00,2,2,0,2,47900,50000,705,50000,0,0,0,0,0.00,0.00,0.00,0.00
2017-04-04 15:30:00,2,49877,0,0.00,2,2,0,2,48925,50000,321,50000,0,0,0,0,0.00,0.00,0.00,0.00
2017-04-04 15:40:00,2,49814,0,0.00,2,2,0,2,48139,50000,558,50000,0,0,0,0,0.00,0.00,0.00,0.00
2017-04-04 15:50:00,2,47607,0,0.00,2,2,0,2,40344,50000,3410,49376,0,0,0,0,0.00,0.00,0.00,0.00
2017-04-04 16:00:00,2,32271,0,0.00,2,2,0,2,22804,44467,6455,33200,0,0,0,0,0.00,0.00,0.00,0.00
2017-04-04 16:10:00,2,49188,0,0.00,2,2,0,2,46516,50000,1075,49548,0,0,0,0,0.00,0.00,0.00,0.00
2017-04-04 16:20:00,2,48204,0,0.00,2,2,0,2,41873,50000,2480,48940,0,0,0,0,0.00,0.00,0.00,0.00
2017-04-04 16:30:00,2,48330,0,0.00,2,2,0,2,45096,50000,1775,49188,0,0,0,0,0.00,0.00,0.00,0.00
2017-04-04 16:40:00,2,49415,0,0.00,2,2,0,2,47895,50000,819,49958,0,0,0,0,0.00,0.00,0.00,0.00
2017-04-04 16:50:00,2,47868,0,0.00,2,2,0,2,41736,50000,2531,48704,0,0,0,0,0.00,0.00,0.00,0.00
2017-04-04 17:00:00,2,47846,0,0.00,2,2,0,2,37792,50000,3762,49965,0,0,0,0,0.00,0.00,0.00,0.00
2017-04-04 17:10:00,2,48556,0,0.00,2,2,0,2,45938,50000,1355,48682,0,0,0,0,0.00,0.00,0.00,0.00
2017-04-04 17:20:00,2,44305,0,0.00,2,2,0,2,39718,50000,3570,43460,0,0,0,0,0.00,0.00,0.00,0.00
2017-04-04 17:30:00,2,45508,0,0.00,2,2,0,2,40312,48578,2712,45752,0,0,0,0,0.00,0.00,0.00,0.00
2017-04-04 17:40:00,2,39889,0,0.00,2,2,0,2,32984,44944,3889,39612,0,0,0,0,0.00,0.00,0.00,0.00
2017-04-04 17:50:00,2,41187,0,0.00,2,2,0,2,34129,46423,3695,41602,0,0,0,0,0.00,0.00,0.00,0.00
2017-04-04 18:00:00,2,45740,0,0.00,2,2,0,2,43774,50000,1799,45306,0,0,0,0,0.00,0.00,0.00,0.00
2017-04-04 18:10:00,2,44163,0,0.00,2,2,0,2,37654,50000,4284,44137,0,0,0,0,0.00,0.00,0.00,0.00
2017-04-04 18:20:00,2,39225,0,0.00,2,2,0,2,31418,46508,4662,38137,0,0,0,0,0.00,0.00,0.00,0.00
2017-04-04 18:30:00,2,47307,0,0.00,2,2,0,2,41457,50000,3077,48938,0,0,0,0,0.00,0.00,0.00,0.00
2017-04-04 18:40:00,2,45284,0,0.00,2,2,0,2,41598,50000,2321,44469,0,0,0,0,0.00,0.00,0.00,0.00
2017-04-04 18:50:00,2,44814,0,0.00,2,2,0,2,38366,50000,3499,43722,0,0,0,0,0.00,0.00,0.00,0.00
2017-04-04 19:00:00,2,47051,0,0.00,2,2,0,2,40828,50000,3403,48308,0,0,0,0,0.00,0.00,0.00,0.00
2017-04-04 19:10:00,2,46937,0,0.00,2,2,0,2,43663,50000,2421,46784,0,0,0,0,0.00,0.00,0.00,0.00
2017-04-04 19:20:00,2,48648,0,0.00,2,2,0,2,46065,50000,1569,49383,0,0,0,0,0.00,0.00,0.00,0.00
2017-04-04 19:30:00,2,46079,0,0.00,2,2,0,2,40669,50000,2757,45426,0,0,0,0,0.00,0.00,0.00,0.00
2017-04-04 19:40:00,2,49049,0,0.00,2,2,0,2,46439,50000,1205,49683,0,0,0,0,0.00,0.00,0.00,0.00
2017-04-04 19:50:00,2,47139,0,0.00,2,2,0,2,38905,50000,3838,48801,0,0,0,0,0.00,0.00,0.00,0.00
2017-04-04 20:00:00,2,47068,0,0.00,2,2,0,2,42794,49745,1958,46854,0,0,0,0,0.00,0.00,0.00,0.00
2017-04-04 20:10:00,2,43150,0,0.00,2,2,0,2,34660,50000,4657,43699,0,0,0,0,0.00,0.00,0.00,0.00
2017-04-04 20:20:00,2,44890,0,0.00,2,2,0,2,37543,50000,4712,46668,0,0,0,0,0.00,0.00,0.00,0.00
2017-04-04 20:30:00,2,42234,0,0.00,2,2,0,2,31527,50000,5142,42028,0,0,0,0,0.00,0.00,0.00,0.00
2017-04-04 20:40:00,2,42182,0,0.00,2,2,0,2,35676,50000,3852,43081,0,0,0,0,0.00,0.00,0.00,0.00
2017-04-04 20:50:00,2,46513,0,0.00,2,2,0,2,38844,50000,3796,47774,0,0,0,0,0.00,0.00,0.00,0.00
2017-04-04 21:00:00,2,43699,0,0.00,2,2,0,2,36517,50000,4541,44982,0,0,0,0,0.00,0.00,0.00,0.00
2017-04-04 21:10:00,2,47164,0,0.00,2,2,0,2,38342,50000,3681,48834,0,0,0,0,0.00,0.00,0.00,0.00
2017-04-04 21:20:00,2,46326,0,0.00,2,2,0,2,37772,50000,4274,47986,0,0,0,0,0.00,0.00,0.00,0.00
2017-04-04 21:30:00,2,49263,0,0.00,2,2,0,2,45280,50000,1545,50000,0,0,0,0,0.00,0.00,0.00,0.00
2017-04-04 21:40:00,2,49684,0,0.00,2,2,0,2,48180,50000,619,50000,0,0,0,0,0.00,0.00,0.00,0.00
2017-04-04 21:50:00,2,48172,0,0.00,2,2,0,2,45115,50000,1618,48120,0,0,0,0,0.00,0.00,0.00,0.00
2017-04-04 22:00:00,2,46151,0,0.00,2,2,0,2,38951,50000,3898,47182,0,0,0,0,0.00,0.00,0.00,0.00
2017-04-04 22:10:00,2,46864,0,0.00,2,2,0,2,39350,50000,3511,47704,0,0,0,0,0.00,0.00,0.00,0.00
2017-04-04 22:20:00,2,42569,0,0.00,2,2,0,2,31175,50000,6464,42920,0,0,0,0,0.00,0.00,0.00,0.00
2017-04-04 22:30:00,2,40650,0,0.00,2,2,0,2,30710,50000,6834,41222,0,0,0,0,0.00,0.00,0.00,0.00
2017-04-04 22:40:00,2,37080,0,0.00,2,2,0,2,32764,43690,3621,36010,0,0,0,0,0.00,0.00,0.00,0.00
2017-04-04 22:50:00,2,31781,0,0.00,2,2,0,2,26203,39133,3908,30808,0,0,0,0,0.00,0.00,0.00,0.00
2017-04-04 23:00:00,2,34486,0,0.00,2,2,0,2,23220,49974,8608,32360,0,0,0,0,0.00,0.00,0.00,0.00
2017-04-04 23:10:00,2,43046,0,0.00,2,2,0,2,28378,50000,6412,43820,0,0,0,0,0.00,0.00,0.00,0.00
2017-04-04 23:20:00,2,38077,0,0.00,2,2,0,2,25412,46470,6459,38665,0,0,0,0,0.00,0.00,0.00,0.00
2017-04-04 23:30:00,2,35578,0,0.00,2,2,0,2,21529,46580,8747,38570,0,0,0,0,0.00,0.00,0.00,0.00
2017-04-04 23:40:00,2,38664,0,0.00,2,2,0,2,28970,50000,8044,38412,0,0,0,0,0.00,0.00,0.00,0.00
2017-04-04 23:50:00,2,29391,0,0.00,2,2,0,2,18685,37834,5903,29248,0,0,0,0,0.00,0.00,0.00,0.00
